Location: LDNL
(36.4545°S, 141.6685°E)
Time: 10:59:57
(UTC+11:00)

RS-44 - Visible Passes

Search period start: 04 December 2023 00:00
Search period end: 14 December 2023 00:00
Orbit: 1174 x 1511 km, 82.5° (Epoch: 03 December)

Date Brightness Start Highest point End Pass type
(mag) Time Alt. Az. Time Alt. Az. Time Alt. Az.
04 Dec ? 01:38:18 38° W 01:39:43 41° WSW 01:47:14 10° S visible
05 Dec ? 00:09:08 53° ENE 00:10:00 55° E 00:17:47 10° SSE visible
05 Dec ? 02:01:42 22° W 02:03:54 26° WSW 02:10:21 10° SSW visible
05 Dec ? 22:39:56 12° E 22:41:39 13° ESE 22:44:54 10° SE visible
06 Dec ? 00:32:30 69° N 00:33:37 88° E 00:41:47 10° S visible
06 Dec ? 02:25:04 12° W 02:28:19 15° WSW 02:32:43 10° SSW visible
06 Dec ? 23:03:17 22° E 23:04:48 23° E 23:10:46 10° SSE visible
07 Dec ? 00:55:51 50° WNW 00:57:27 59° W 01:05:30 10° S visible
07 Dec ? 23:26:37 36° ENE 23:28:07 39° E 23:35:28 10° SSE visible
08 Dec ? 01:19:11 31° WNW 01:21:29 37° WSW 01:28:56 10° S visible
08 Dec ? 23:49:56 52° NE 23:51:36 63° E 23:59:41 10° SSE visible
09 Dec ? 01:42:30 18° W 01:45:44 23° WSW 01:51:56 10° SSW visible
09 Dec ? 22:20:40 14° E 22:23:10 16° ESE 22:27:33 10° SE visible
10 Dec ? 00:13:14 54° NNW 00:15:17 83° W 00:23:37 10° S visible
10 Dec ? 02:06:34 10° W 02:10:12 14° WSW 02:13:58 10° SW visible
10 Dec ? 22:43:56 23° ENE 22:46:21 27° E 22:52:54 10° SSE visible
11 Dec ? 00:36:30 38° NW 00:39:10 53° WSW 00:47:16 10° S visible
11 Dec ? 23:07:11 35° NE 23:09:42 45° E 23:17:26 10° SSE visible
12 Dec ? 00:59:45 23° WNW 01:03:16 33° WSW 01:10:37 10° S visible
12 Dec ? 23:30:24 43° NNE 23:33:15 72° E 23:41:35 10° SSE visible
13 Dec ? 01:22:58 13° WNW 01:27:35 21° WSW 01:33:28 10° SSW visible
13 Dec ? 22:01:02 14° ENE 22:04:41 19° E 22:09:57 10° SE visible
